Weather History for KMCW - May, 2013

Change the Weather History Date:

Saturday, May 4, 2013

  Actual Average Record
Temperature  
Mean Temperature 38 °F 54 °F  
Max Temperature 42 °F 66 °F 90 °F (1918)
Min Temperature 33 °F 42 °F 24 °F (1910)
Degree Days  
Heating Degree Days 27 11  
Month to date heating degree days 113 46  
Since 1 July heating degree days 7605 7446  
Cooling Degree Days 0 0  
Month to date cooling degree days 0 0  
Year to date cooling degree days 0 5  
Moisture  
Dew Point 33 °F    
Average Humidity 84    
Maximum Humidity 92    
Minimum Humidity 76    
Precipitation  
Precipitation 0.05 in 0.14 in 2.21 in (2003)
Month to date precipitation 1.43 0.57  
Year to date precipitation 14.74 8.37  
Snow  
Snow 0.00 in 0.00 in - ()
Month to date snowfall 9.5 0.1  
Since 1 July snowfall 56.0 41.3  
Snow Depth -    
Sea Level Pressure  
Sea Level Pressure 30.08 in    
Wind  
Wind Speed 13 mph (North)    
Max Wind Speed 23 mph    
Max Gust Speed 28 mph    
Visibility 9 miles    
Events Rain    
T = Trace of Precipitation, MM = Missing Value Source: NWS Daily Summary

Daily Weather History Graph

Daily Weather History Graph

Search for Another Location

Airport or City:

Trip Planner

Search our weather history database for the weather conditions in past years. The results will help you decide how hot, cold, wet, or windy it might be!

Date:

Astronomy

May. 04, 2013 Rise Set
Actual Time 6:02 AM CDT 8:18 PM CDT
Civil Twilight 5:30 AM CDT 8:50 PM CDT
Nautical Twilight 4:52 AM CDT 9:29 PM CDT
Astronomical Twilight 4:08 AM CDT 10:12 PM CDT
Moon 3:09 AM CDT (5/4) 3:09 PM CDT (5/4)
Length of Visible Light 15h 19m
Length of Day
14h 16m
Waning Crescent, 27% of the Moon is Illuminated
May 4
Waning Crescent
May 9
New
May 17
First Quarter
May 24
Full
May 31
Last Quarter

Hourly Weather History & Observations

Time (CDT) Temp. Windchill Dew Point Humidity Pressure Visibility Wind Dir Wind Speed Gust Speed Precip Events Conditions
12:53 AM 33.1 °F 21.9 °F 30.0 °F 89% 30.06 in 10.0 mi North 18.4 mph - 0.00 in Rain Light Rain
1:53 AM 33.1 °F 21.5 °F 30.0 °F 89% 30.04 in 10.0 mi NNE 19.6 mph - 0.01 in   Overcast
2:53 AM 33.1 °F 21.5 °F 30.0 °F 89% 30.02 in 10.0 mi North 19.6 mph - 0.00 in   Overcast
3:53 AM 33.1 °F 22.6 °F 30.0 °F 89% 30.04 in 7.0 mi NNE 16.1 mph - 0.01 in Rain Light Rain
4:53 AM 33.1 °F 21.9 °F 30.0 °F 89% 30.02 in 10.0 mi North 18.4 mph - 0.02 in Rain Light Rain
5:53 AM 33.1 °F 21.2 °F 30.9 °F 92% 30.03 in 10.0 mi NNE 20.7 mph - 0.00 in   Overcast
6:51 AM 33.8 °F 23.2 °F 30.2 °F 87% 30.02 in 10.0 mi NNE 17.3 mph - N/A   Overcast
6:53 AM 33.1 °F 22.2 °F 30.9 °F 92% 30.04 in 10.0 mi NNE 17.3 mph - N/A   Overcast
7:53 AM 34.0 °F 24.2 °F 30.9 °F 89% 30.05 in 10.0 mi NNE 15.0 mph - N/A   Overcast
8:53 AM 35.1 °F 26.4 °F 32.0 °F 89% 30.05 in 10.0 mi North 12.7 mph - N/A   Overcast
9:53 AM 35.1 °F 25.9 °F 32.0 °F 89% 30.06 in 10.0 mi NNE 13.8 mph - 0.00 in   Overcast
10:53 AM 36.0 °F 28.5 °F 32.0 °F 86% 30.09 in 8.0 mi NNE 10.4 mph - N/A   Overcast
11:29 AM 37.4 °F 30.8 °F 33.8 °F 87% 30.08 in 9.0 mi NNE 9.2 mph - N/A   Overcast
11:53 AM 37.0 °F 29.8 °F 33.1 °F 86% 30.10 in 8.0 mi NNE 10.4 mph - N/A   Overcast
12:53 PM 37.9 °F 30.9 °F 34.0 °F 86% 30.09 in 7.0 mi North 10.4 mph - N/A   Overcast
1:30 PM 39.2 °F 31.2 °F 33.8 °F 81% 30.07 in 9.0 mi NNE 13.8 mph - N/A   Overcast
1:53 PM 39.9 °F 32.5 °F 34.0 °F 79% 30.09 in 8.0 mi NNE 12.7 mph - N/A   Overcast
2:53 PM 39.9 °F 32.5 °F 34.0 °F 79% 30.09 in 8.0 mi North 12.7 mph - N/A   Scattered Clouds
3:53 PM 41.0 °F 33.9 °F 35.1 °F 79% 30.09 in 8.0 mi North 12.7 mph - N/A   Mostly Cloudy
4:53 PM 42.1 °F 35.2 °F 35.1 °F 76% 30.08 in 9.0 mi North 12.7 mph - N/A   Clear
5:53 PM 39.9 °F 33.9 °F 35.1 °F 83% 30.10 in 8.0 mi North 9.2 mph - N/A   Overcast
6:53 PM 39.0 °F 32.8 °F 35.1 °F 86% 30.11 in 9.0 mi North 9.2 mph - 0.01 in Rain Light Rain
7:53 PM 37.9 °F 30.9 °F 34.0 °F 86% 30.12 in 8.0 mi North 10.4 mph - 0.00 in   Partly Cloudy
8:53 PM 37.9 °F 31.5 °F 35.1 °F 89% 30.12 in 8.0 mi North 9.2 mph - 0.00 in Rain Light Rain
9:53 PM 39.0 °F 31.8 °F 36.0 °F 89% 30.13 in 8.0 mi North 11.5 mph - 0.00 in   Mostly Cloudy
10:53 PM 39.0 °F 32.8 °F 36.0 °F 89% 30.14 in 8.0 mi North 9.2 mph - N/A   Overcast
11:53 PM 37.9 °F 32.1 °F 36.0 °F 93% 30.14 in 6.0 mi North 8.1 mph - N/A   Overcast